Location: ??
(35.5052°N, 139.7262°E)
Time: 03:42:15
(UTC+00:00)

Thor Agena Rocket - Pass Details

Date: 20 June 2021
Orbit: 759 x 808 km, 99.0° (Epoch: 26 July)

Event Time Altitude Azimuth Distance (km) Brightness Sun altitude
Rises 14:40:21 0° 11° (NNE) 3,305 7.9 -31.1°
Reaches altitude 10° 14:42:42 10° 11° (N) 2,365 6.9 -31.1°
Enters shadow 14:46:49 56° 359° (N) 932 4.1 -31.0°
